Regional Weather Roundup
Issued by NWS Sioux Falls, SD

Home | Current Version | Previous Version | Text Only | Print | Product List | Glossary Off
Versions: 1 2 3 4 5 6 7 8 9 10 11 12 13 14 15 16 17 18 19 20 21 22 23 24 25 26 27 28 29 30 31 32 33 34 35 36 37 38 39 40 41 42 43 44 45 46 47 48 49 50

000
ASUS43 KFSD 251410
RWRFSD

WEATHER ROUNDUP FOR SE SOUTH DAKOTA/SW MINNESOTA/NW IOWA
NATIONAL WEATHER SERVICE SIOUX FALLS SD
900 AM CDT TUE APR 25 2017

NOTE: "FAIR" INDICATES FEW OR NO CLOUDS BELOW 12,000 FEET WITH NO
SIGNIFICANT WEATHER AND OR OBSTRUCTIONS TO VISIBILITY.


SDZ038>040-050-052>070-251500-
SOUTHEAST SOUTH DAKOTA

CITY           SKY/WX    TMP DP  RH WIND       PRES   REMARKS
BROOKINGS      CLOUDY    36  34  92 N13       29.62R
CHAMBERLAIN    CLOUDY    36  34  91 N13G18    29.70R
HURON          CLOUDY    35  33  92 N16       29.69R WCI  25
MADISON        CLOUDY    36  36 100 N15G21    29.62R
MITCHELL       CLOUDY    37  34  89 N17G25    29.67R
SIOUX FALLS    CLOUDY    41  38  89 NE5       29.64R
WINNER         CLOUDY    37  34  89 N14       29.69R
YANKTON        CLOUDY    39  36  87 NW14      29.62F
$$

MNZ071-072-080-081-089-090-097-098-251500-
SOUTHWEST MINNESOTA

CITY           SKY/WX    TMP DP  RH WIND       PRES   REMARKS
FAIRMONT       CLOUDY    41  39  93 NW12      29.57R FOG
JACKSON        FOG       37  37 100 NW10      29.58R VSB 1
LUVERNE        CLOUDY    37  34  87 N12       29.62R
MARSHALL       CLOUDY    36  35  96 N20       29.60R
MONTEVIDEO     CLOUDY    36  36 100 N14G23    29.59R FOG
PIPESTONE      CLOUDY    37  34  87 N10G17    29.60R FOG
REDWOOD FALLS  CLOUDY    40  37  89 NW16      29.57R
TRACY          CLOUDY    37  37 100 NW16G22   29.59R FOG
WINDOM         CLOUDY    39  39 100 N12       29.57R FOG
WORTHINGTON    CLOUDY    38  37  97 N15       29.58S
$$

IAZ001>003-012>014-020>022-031-032-NEZ013-014-SDZ071-251500-
NORTHWEST IOWA

CITY           SKY/WX    TMP DP  RH WIND       PRES   REMARKS
CHEROKEE       CLOUDY    44  42  94 N6        29.60R
DENISON        CLOUDY    48  45  87 N14       29.53S
ESTHERVILLE    CLOUDY    40  40 100 N13       29.55S FOG
LE MARS        CLOUDY    43  39  87 NW13      29.64R
ORANGE CITY    CLOUDY    43  39  87 N8        29.62R
SHELDON        CLOUDY    41  37  87 N12       29.59R
SIOUX CITY     LGT RAIN  43  42  97 N13G35    29.56F
SPENCER        CLOUDY    41  40  96 N10       29.59R
STORM LAKE     CLOUDY    43  41  93 N15       29.55S
$$

ABBREVIATIONS USED IN REMARKS
   TC - TEMPERATURE IN CELSIUS
  WCI - WIND CHILL INDEX
   HX - HEAT INDEX
  VSB - VISIBILITY





USA.gov is the U.S. government's official web portal to all federal, state and local government web resources and services.